Date String (YYYY-MM-DD hh:mm:ss) UTC,Instrument flags,Ambient pressure (hPa),Sample flow (lpm),Bypass flow (lpm),Sample temperature (°C),Ambient temperature (°C),ASC tube jacket temperature (°C),LED temperature (°C),Box temperature (°C),Sample RH (%),Span deviation,Mass concentration (μg/m³),Mass concentration (μg/m³),Mass concentration (μg/m³)
DateTimeUTC,F1_M11,P_M11,Q1_M11,Q2_M11,T1_M11,T2_M11,T3_M11,T4_M11,T5_M11,U1_M11,ZSPAN_M11,X0_M11,X2_M11,X1_M11
2021-12-14 10:00:00,,0822.8,5.01,0.00,25.5,24.7,00.0,34.6,27.2,07.9,0004.4,0037.65,0008.23,0005.02
2021-12-14 10:01:00,,0822.8,5.00,0.00,25.5,24.6,00.0,34.6,27.2,08.0,0005.0,0037.31,0008.31,0005.09
2021-12-14 10:02:00,,0822.8,4.99,0.00,25.5,24.6,00.0,34.6,27.2,07.9,0004.1,0036.08,0008.31,0005.13
2021-12-14 10:03:00,,0822.7,5.01,0.00,25.5,24.6,00.0,34.6,27.2,08.0,0003.1,0036.86,0008.35,0005.16
2021-12-14 10:04:00,,0822.7,5.01,0.00,25.5,24.6,00.0,34.6,27.2,08.0,0002.7,0038.49,0008.47,0005.23
2021-12-14 10:05:00,,0822.6,4.99,0.00,25.5,24.6,00.0,34.6,27.2,08.0,0001.2,0036.77,0008.48,0005.29
2021-12-14 10:06:00,,0822.7,5.00,0.00,25.5,24.6,00.0,34.5,27.2,07.9,0002.0,0035.61,0008.55,0005.32
2021-12-14 10:07:00,,0822.7,5.01,0.00,25.5,24.6,00.0,34.5,27.2,08.0,0002.4,0035.57,0008.70,0005.36
2021-12-14 10:08:00,,0822.7,4.99,0.00,25.5,24.6,00.0,34.5,27.2,07.8,0003.1,0035.16,0008.84,0005.38
2021-12-14 10:09:00,,0822.7,5.01,0.00,25.5,24.6,00.0,34.5,27.2,07.0,0003.0,0034.81,0008.79,0005.34
2021-12-14 10:10:00,,0822.7,5.01,0.00,25.5,24.6,00.0,34.5,27.2,06.8,0002.7,0033.76,0008.59,0005.24
2021-12-14 10:11:00,,0822.7,5.00,0.00,25.5,24.6,00.0,34.5,27.1,07.3,0002.4,0031.45,0008.48,0005.16
2021-12-14 10:12:00,,0822.7,5.01,0.00,25.5,24.6,00.0,34.5,27.1,07.2,0002.2,0030.19,0008.28,0005.08
2021-12-14 10:13:00,,0822.7,5.00,0.00,25.5,24.6,00.0,34.5,27.2,07.2,0002.4,0029.11,0008.06,0005.03
2021-12-14 10:14:00,,0822.7,5.01,0.00,25.4,24.6,00.0,34.5,27.2,06.9,0003.7,0027.26,0007.74,0004.93
2021-12-14 10:15:00,,0822.7,4.99,0.00,25.4,24.6,00.0,34.5,27.2,06.7,0002.6,0023.90,0007.26,0004.76
2021-12-14 10:16:00,,0822.6,5.01,0.00,25.4,24.6,00.0,34.5,27.2,06.8,0000.0,0022.84,0006.92,0004.57
2021-12-14 10:17:00,,0822.6,5.01,0.00,25.5,24.6,00.0,34.5,27.2,06.9,0000.0,0021.69,0006.67,0004.48
2021-12-14 10:18:00,,0822.6,5.00,0.00,25.5,24.6,00.0,34.5,27.2,06.9,0000.0,0019.76,0006.35,0004.38
2021-12-14 10:19:00,,0822.7,5.01,0.00,25.4,24.6,00.0,34.5,27.2,07.0,0000.0,0018.55,0006.04,0004.28
2021-12-14 10:20:00,,0822.7,5.00,0.00,25.4,24.5,00.0,34.5,27.2,07.0,0000.0,0017.81,0005.89,0004.23
2021-12-14 10:21:00,,0822.6,4.99,0.00,25.4,24.5,00.0,34.5,27.2,07.0,0000.0,0017.63,0005.97,0004.29
2021-12-14 10:22:00,,0822.7,5.01,0.00,25.4,24.5,00.0,34.4,27.2,07.1,0000.0,0017.41,0005.95,0004.31
2021-12-14 10:23:00,,0822.6,5.00,0.00,25.4,24.6,00.0,34.4,27.2,07.1,0000.0,0017.11,0005.87,0004.27
2021-12-14 10:24:00,,0822.6,5.00,0.00,25.4,24.6,00.0,34.4,27.2,07.2,0000.0,0016.97,0005.83,0004.26
2021-12-14 10:25:00,,0822.6,5.01,0.00,25.4,24.6,00.0,34.4,27.2,07.3,0000.0,0017.15,0005.91,0004.27
2021-12-14 10:26:00,,0822.6,5.00,0.00,25.4,24.6,00.0,34.4,27.2,07.3,0000.0,0018.13,0006.14,0004.36
2021-12-14 10:27:00,,0822.7,5.00,0.00,25.4,24.6,00.0,34.4,27.2,07.3,0000.0,0018.61,0006.33,0004.45
2021-12-14 10:28:00,,0822.6,5.01,0.00,25.4,24.6,00.0,34.4,27.2,07.2,0000.0,0020.24,0006.38,0004.48
2021-12-14 10:29:00,,0822.7,5.01,0.00,25.5,24.6,00.0,34.4,27.2,07.3,0000.0,0021.04,0006.38,0004.49
2021-12-14 10:30:00,,0822.6,4.99,0.00,25.5,24.6,00.0,34.4,27.2,07.3,0000.0,0021.16,0006.52,0004.52
2021-12-14 10:31:00,,0822.6,5.01,0.00,25.5,24.6,00.0,34.4,27.2,07.3,0000.0,0020.86,0006.63,0004.55
2021-12-14 10:32:00,,0822.6,5.00,0.00,25.5,24.5,00.0,34.4,27.2,07.2,0000.0,0021.12,0006.64,0004.56
2021-12-14 10:33:00,,0822.6,5.00,0.00,25.4,24.5,00.0,34.4,27.2,07.2,0000.0,0022.43,0006.72,0004.58
2021-12-14 10:34:00,,0822.6,4.99,0.00,25.4,24.5,00.0,34.4,27.2,07.2,0000.0,0024.44,0006.71,0004.59
2021-12-14 10:35:00,,0822.4,5.01,0.00,25.4,24.5,00.0,34.4,27.2,07.1,0000.0,0025.04,0006.73,0004.58
2021-12-14 10:36:00,,0822.4,4.98,0.00,25.4,24.5,00.0,34.4,27.2,07.1,0000.0,0026.13,0006.71,0004.55
2021-12-14 10:37:00,,0822.4,5.00,0.00,25.4,24.5,00.0,34.4,27.2,07.1,0000.0,0025.63,0006.66,0004.51
2021-12-14 10:38:00,,0822.4,5.01,0.00,25.4,24.5,00.0,34.4,27.2,07.0,0000.0,0025.84,0006.58,0004.48
2021-12-14 10:39:00,,0822.4,4.99,0.00,25.4,24.5,00.0,34.4,27.2,07.0,0000.0,0024.91,0006.52,0004.45
2021-12-14 10:40:00,,0822.5,5.02,0.00,25.4,24.5,00.0,34.4,27.2,07.0,0000.0,0024.90,0006.51,0004.42
2021-12-14 10:41:00,,0822.4,4.99,0.00,25.4,24.5,00.0,34.4,27.2,07.0,0000.0,0024.30,0006.38,0004.38
2021-12-14 10:42:00,,0822.4,5.00,0.00,25.4,24.5,00.0,34.4,27.2,07.0,0000.0,0024.23,0006.24,0004.34
2021-12-14 10:43:00,,0822.4,5.00,0.00,25.4,24.5,00.0,34.4,27.1,06.9,0000.0,0024.06,0006.21,0004.31
2021-12-14 10:44:00,,0822.4,5.00,0.00,25.4,24.5,00.0,34.4,27.1,07.0,0000.0,0023.37,0006.19,0004.28
2021-12-14 10:45:00,,0822.4,5.00,0.00,25.4,24.5,00.0,34.4,27.1,07.1,0000.0,0022.06,0006.17,0004.26
2021-12-14 10:46:00,,0822.3,5.00,0.00,25.4,24.5,00.0,34.4,27.1,07.2,0000.0,0023.14,0006.20,0004.26
2021-12-14 10:47:00,,0822.4,4.99,0.00,25.4,24.5,00.0,34.4,27.1,07.4,0000.9,0022.12,0006.30,0004.30
2021-12-14 10:48:00,,0822.5,5.01,0.00,25.4,24.5,00.0,34.4,27.1,07.4,0004.2,0022.22,0006.29,0004.34
2021-12-14 10:49:00,,0822.5,4.99,0.00,25.4,24.5,00.0,34.4,27.1,07.7,0003.1,0022.00,0006.40,0004.42
2021-12-14 10:50:00,,0822.4,5.01,0.00,25.4,24.5,00.0,34.4,27.2,07.7,0003.0,0021.88,0006.69,0004.54
2021-12-14 10:51:00,,0822.4,5.00,0.00,25.4,24.5,00.0,34.4,27.2,07.5,0002.2,0022.09,0006.84,0004.61
2021-12-14 10:52:00,,0822.5,5.00,0.00,25.4,24.5,00.0,34.4,27.1,07.4,0001.2,0023.04,0006.98,0004.68
2021-12-14 10:53:00,,0822.6,5.00,0.00,25.4,24.5,00.0,34.4,27.1,07.1,0000.0,0023.07,0007.04,0004.71
2021-12-14 10:54:00,,0822.6,5.00,0.00,25.3,24.4,00.0,34.3,27.1,07.1,0000.0,0022.65,0007.01,0004.72
2021-12-14 10:55:00,,0822.4,5.00,0.00,25.3,24.4,00.0,34.3,27.0,07.1,0000.0,0021.74,0006.93,0004.71
2021-12-14 10:56:00,,0822.4,4.99,0.00,25.3,24.4,00.0,34.3,27.0,07.0,0000.0,0020.73,0006.90,0004.68
2021-12-14 10:57:00,,0822.4,5.00,0.00,25.3,24.4,00.0,34.3,27.0,07.2,0000.0,0019.61,0006.86,0004.68
2021-12-14 10:58:00,,0822.4,5.00,0.00,25.3,24.4,00.0,34.3,27.0,07.2,0000.0,0019.73,0006.81,0004.67
2021-12-14 10:59:00,,0822.5,5.00,0.00,25.3,24.4,00.0,34.3,27.0,07.2,0000.0,0020.22,0006.79,0004.66
